sat.trackr.live / text

‹ back to catalog

STARLINK-35211

NORAD 65757 · 2025-216Z

PAYLOAD ACTIVE UNKNOWN

§ Identity

Operator
Country
US
Launch date
2025-09-25
Launch site
AFETR
Launch vehicle
Mass (kg)
RCS (m²)

Purposes: comms

External: N2YO · Heavens-Above · Gunter

§ Orbital elements

Epoch: 2026-09-20T02:12:44.917920Z

Period
93.85 min
Inclination
53.1582°
Eccentricity
0.0000549
Mean motion
15.34399636 rev/d
Perigee alt
462.3 km
Apogee alt
463.1 km
Semi-major
6,840.8 km
B*
4.8495e-4
RAAN
147.3517°
Arg perigee
73.6057°
Mean anomaly
286.5006°
Rev number
5,634

§ Raw data

STARLINK-352111 65757U 25216Z   26263.09218655  .00016044  00000+0  48495-3 0  99982 65757  53.1582 147.3517 0000549  73.6057 286.5006 15.34399636 56344

JSON: /api/v1/satellites/65757 · /tle

For live sub-satellite position, see the globe view (requires WebGL).

§ Visibility from observer

Set your observer location to see the next 7 days of passes ≥ 10°. The values pass through the URL so the page stays shareable.

No JS? Fill the form by hand. The geolocation button needs JavaScript.